This demonstration page uses our WeatherBlox Daily Observations layout. Learn more.

Left ArrowRight Arrow

39.08367, -84.50855

Hourly Observations for November 30, 2018

Temp ( °F °C ) Dew Point ( °F °C ) Humidity (%) Winds ( mph kmh ) Pressure ( in mb ) Visibility ( mi km ) Precip ( " mm )
12:53 am 00:53 Cloudy 39 3.9 37 2.8 93 93 NNE 6 9 29.90 1013 8 13 0.00 0.00
1:07 am 01:07 Cloudy 39 3.9 38 3.3 96 96 SW 3 6 29.94 1014 7 11 0.00 0.00
1:53 am 01:53 Cloudy 39 3.9 38 3.3 96 96 Calm 29.91 1013 8 13 0.00 0.00
2:53 am 02:53 Cloudy with Light Rain 39 3.9 38 3.3 96 96 NE 3 6 29.92 1013 5 8 0.00 0.03
3:53 am 03:53 Cloudy with Light Rain 39 3.9 39 3.9 100 100 Calm 29.92 1013 3 4 0.02 0.51
4:03 am 04:03 Cloudy with Light Rain 39 3.9 39 3.9 100 100 Calm 29.94 1014 3 5 0.00 0.03
4:53 am 04:53 Cloudy with Mist and Fog 40 4.4 40 4.4 100 100 Calm 29.91 1013 4 6 0.00 0.03
5:11 am 05:11 Cloudy with Mist and Fog 40 4.4 40 4.4 100 100 Calm 29.94 1014 3 4 0.00 0.00
5:27 am 05:27 Cloudy with Mist and Fog 40 4.4 40 4.4 100 100 Calm 29.94 1014 2 3 0.00 0.00
5:38 am 05:38 Cloudy with Mist and Fog 40 4.4 40 4.4 100 100 Calm 29.94 1014 2 3 0.00 0.00
5:53 am 05:53 Cloudy with Mist and Fog 40 4.4 40 4.4 100 100 Calm 29.94 1014 2 2 0.00 0.00
6:23 am 06:23 Cloudy with Mist and Fog 40 4.4 40 4.4 100 100 Calm 29.94 1014 1 2 0.00 0.00
6:53 am 06:53 Cloudy with Mist and Fog 40 4.4 40 4.4 100 100 Calm 29.95 1014 2 3 0.00 0.00
7:53 am 07:53 Cloudy with Mist and Fog 41 5 41 5 100 100 Calm 29.97 1015 2 3 0.00 0.00
8:42 am 08:42 Cloudy with Mist and Fog 42 5.6 42 5.6 100 100 N 3 6 29.97 1015 2 3 0.00 0.00
8:53 am 08:53 Cloudy with Mist and Fog 42 5.6 42 5.6 100 100 Calm 29.99 1016 2 3 0.00 0.00
9:53 am 09:53 Cloudy with Mist and Fog 44 6.7 44 6.7 100 100 Calm 30.01 1016 2 3 0.00 0.00
10:53 am 10:53 Cloudy with Mist and Fog 47 8.3 46 7.8 97 97 N 3 6 30.02 1017 2 3 0.00 0.00
11:43 am 11:43 Cloudy with Mist and Fog 48 8.9 46 7.8 93 93 Calm 30.00 1016 4 6 0.00 0.00
11:53 am 11:53 Cloudy with Mist and Fog 48 8.9 46 7.8 93 93 Calm 30.01 1016 4 6 0.00 0.00
12:53 pm 12:53 Cloudy with Mist and Fog 48 8.9 46 7.8 93 93 ENE 3 6 30.01 1016 5 8 0.00 0.00
1:53 pm 13:53 Cloudy with Mist and Fog 48 8.9 46 7.8 93 93 NNE 5 7 30.01 1016 5 8 0.00 0.00
2:53 pm 14:53 Cloudy 48 8.9 46 7.8 93 93 NE 5 7 30.01 1016 5 8 0.00 0.00
3:53 pm 15:53 Cloudy with Mist and Fog 48 8.9 46 7.8 93 93 NNE 5 7 30.03 1017 6 10 0.00 0.00
4:53 pm 16:53 Cloudy with Mist and Fog 47 8.3 45 7.2 93 93 NNE 6 9 30.04 1017 5 8 0.00 0.00
5:53 pm 17:53 Cloudy with Mist and Fog 47 8.3 45 7.2 93 93 NNE 5 7 30.06 1018 4 6 0.00 0.00
6:53 pm 18:53 Cloudy with Mist and Fog 46 7.8 45 7.2 96 96 ENE 5 7 30.06 1018 6 10 0.00 0.00
7:53 pm 19:53 Cloudy 46 7.8 45 7.2 96 96 NE 3 6 30.07 1018 7 11 0.00 0.00
8:53 pm 20:53 Cloudy with Mist and Fog 45 7.2 45 7.2 100 100 NE 7 11 30.06 1018 3 5 0.00 0.00
9:53 pm 21:53 Cloudy with Mist and Fog 45 7.2 44 6.7 97 97 ENE 8 13 30.06 1018 5 8 0.00 0.00
10:32 pm 22:32 Cloudy with Mist and Fog 45 7.2 44 6.7 97 97 NE 5 7 30.03 1017 6 10 0.00 0.00
10:53 pm 22:53 Cloudy with Mist and Fog 45 7.2 44 6.7 97 97 NE 7 11 30.04 1017 6 10 0.00 0.00
11:53 pm 23:53 Cloudy 45 7.2 44 6.7 97 97 ENE 7 11 30.04 1017 7 11 0.00 0.00

Powered by AerisWeather